Weather History for KGCN - August, 2012

Change the Weather History Date:

Wednesday, August 8, 2012

  Actual Average (KFLG) Record (KFLG)
Temperature  
Mean Temperature 70 °F 65 °F  
Max Temperature 87 °F 79 °F 90 °F (1980)
Min Temperature 54 °F 52 °F 35 °F (2009)
Degree Days  
Heating Degree Days 0 1  
Month to date heating degree days 8  
Since 1 July heating degree days 40  
Cooling Degree Days 6 1  
Month to date cooling degree days 15  
Year to date cooling degree days 96  
Growing Degree Days 20 (Base 50)    
Moisture  
Dew Point 50 °F    
Average Humidity 58    
Maximum Humidity 86    
Minimum Humidity 21    
Precipitation  
Precipitation 0.07 in 0.11 in 1.38 in (1959)
Month to date precipitation 0.87  
Year to date precipitation 11.95  
Snow  
Snow 0.00 in 0.00 in 0.00 in (2002)
Month to date snowfall 0.0  
Since 1 July snowfall 0.0  
Snow Depth -    
Sea Level Pressure  
Sea Level Pressure 30.06 in    
Wind  
Wind Speed 3 mph (East)    
Max Wind Speed 12 mph    
Max Gust Speed 16 mph    
Visibility 10 miles    
Events Rain , Thunderstorm    
T = Trace of Precipitation, MM = Missing Value Source: NWS Daily Summary

Daily Weather History Graph

Daily Weather History Graph

Search for Another Location

Airport or City:

Trip Planner

Search our weather history database for the weather conditions in past years. The results will help you decide how hot, cold, wet, or windy it might be!

Date:

Astronomy

Aug. 08, 2012 Rise Set
Actual Time 5:42 AM MST 7:25 PM MST
Civil Twilight 5:14 AM MST 7:53 PM MST
Nautical Twilight 4:40 AM MST 8:26 PM MST
Astronomical Twilight 4:05 AM MST 9:01 PM MST
Moon 10:58 PM MST (8/8) 12:15 PM MST (8/8)
Length of Visible Light 14h 38m
Length of Day
13h 43m
Waning Gibbous, 59% of the Moon is Illuminated
Aug 8
Waning Gibbous
Aug 9
Last Quarter
Aug 17
New
Aug 24
First Quarter
Aug 31
Full

Hourly Weather History & Observations

Time (MST) Temp. Dew Point Humidity Pressure Visibility Wind Dir Wind Speed Gust Speed Precip Events Conditions
12:54 AM 57.0 °F 50.0 °F 77% 30.01 in 10.0 mi ENE 4.6 mph - N/A   Clear
1:54 AM 55.9 °F 48.9 °F 77% 30.01 in 10.0 mi Calm Calm - N/A   Clear
2:54 AM 54.0 °F 50.0 °F 86% 30.07 in 10.0 mi Calm Calm - N/A   Clear
3:54 AM 55.0 °F 48.9 °F 80% 30.06 in 10.0 mi ENE 4.6 mph - N/A   Scattered Clouds
4:54 AM 57.0 °F 48.9 °F 74% 30.05 in 10.0 mi ENE 5.8 mph - N/A   Partly Cloudy
5:54 AM 57.9 °F 52.0 °F 81% 30.07 in 10.0 mi Calm Calm - N/A   Clear
6:54 AM 66.0 °F 51.1 °F 59% 30.06 in 10.0 mi ENE 4.6 mph - N/A   Clear
7:54 AM 75.9 °F 51.1 °F 42% 30.06 in 10.0 mi Calm Calm - N/A   Clear
8:54 AM 81.0 °F 48.0 °F 31% 30.06 in 10.0 mi West 4.6 mph - N/A   Clear
9:54 AM 84.9 °F 46.9 °F 27% 30.04 in 10.0 mi SSW 3.5 mph - N/A   Clear
10:54 AM 87.1 °F 43.0 °F 21% 30.03 in 10.0 mi SSW 9.2 mph - N/A   Clear
11:54 AM 77.0 °F 55.0 °F 47% 30.08 in 8.0 mi NNE 11.5 mph 16.1 mph 0.01 in Rain , Thunderstorm Light Thunderstorms and Rain
12:54 PM 64.9 °F 57.9 °F 78% 30.13 in 10.0 mi ESE 3.5 mph - 0.06 in Rain , Thunderstorm Light Thunderstorms and Rain
1:54 PM 75.9 °F 50.0 °F 40% 30.09 in 10.0 mi East 8.1 mph - 0.00 in Thunderstorm Thunderstorm
2:34 PM 77.0 °F 51.8 °F 41% 30.34 in 10.0 mi ESE 4.6 mph - N/A   Clear
2:54 PM 80.1 °F 46.0 °F 30% 30.05 in 10.0 mi NE 5.8 mph - N/A   Clear
4:54 PM 86.0 °F 42.1 °F 21% 29.98 in 10.0 mi SSE 5.8 mph - N/A   Clear
5:54 PM 77.0 °F 53.1 °F 43% 30.01 in 10.0 mi Calm Calm - N/A   Clear
6:54 PM 72.0 °F 54.0 °F 53% 30.01 in 10.0 mi Calm Calm - N/A   Clear
7:54 PM 66.0 °F 55.9 °F 70% 30.01 in 10.0 mi Calm Calm - N/A   Clear
8:54 PM 61.0 °F 52.0 °F 72% 30.03 in 10.0 mi Calm Calm - N/A   Clear
9:54 PM 59.0 °F 51.1 °F 75% 30.02 in 10.0 mi Calm Calm - N/A   Clear
10:54 PM 55.9 °F 50.0 °F 80% 30.02 in 10.0 mi NE 3.5 mph - N/A   Clear
11:54 PM 55.9 °F 50.0 °F 80% 30.06 in 10.0 mi ENE 3.5 mph - N/A   Clear